Simultaneous Nadir Overpasses (SNOs) Predictions

Prediction of SNOs between GOES-16 and METOP-C Satellite Orbit:

Table of predicted SNOs for the next 14.0 days since TLE Epoch: 10/11/2020
Index Date Time (GOES-16) GOES-16 Lat,Lon METOP-C Lat,Lon Distance(km) Time Diff (sec)
1 10/12/2020 14:28:58 -0.03, -75.25 -0.11, -74.78 53.85 80
2 10/14/2020 02:50:40 0.03, -75.24 -0.88, -79.38 471.96 80
3 10/15/2020 02:27:21 0.03, -75.24 0.24, -74.39 97.69 80
4 10/16/2020 14:48:54 -0.03, -75.28 0.81, -78.94 418.12 80
5 10/17/2020 14:25:35 -0.03, -75.29 -0.30, -73.95 151.82 80
6 10/19/2020 02:47:17 0.03, -75.28 -0.68, -78.56 373.01 80
7 10/20/2020 02:23:58 0.02, -75.29 0.38, -73.55 197.17 80
8 10/21/2020 14:45:31 -0.02, -75.33 0.62, -78.12 318.06 80
9 10/22/2020 14:22:13 -0.02, -75.34 -0.49, -73.12 252.38 80
10 10/24/2020 02:43:54 0.01, -75.34 -0.53, -77.72 271.37 80
11 10/25/2020 02:20:36 0.01, -75.36 0.59, -72.73 299.55 80
